Location: Newark
(29.9790°N, 31.1340°E)
Time: 01:01:45
(UTC+00:00)

Vanguard 3 - Pass Details

Date: 18 January 2021
Orbit: 508 x 3262 km, 33.4° (Epoch: 06 March)

Event Time Altitude Azimuth Distance (km) Brightness Sun altitude
Exits shadow 02:55:22 35° 246° (WSW) 2,198 8.9 -24.9°
Maximum altitude 03:00:03 85° 161° (SSE) 1,802 8.7 -23.9°
Drops below altitude 10° 03:15:18 10° 74° (ENE) 5,501 12.2 -20.6°
Sets 03:20:23 0° 75° (ENE) 6,828 12.9 -19.6°
